Time,TemperatureF,DewpointF,PressureIn,WindDirection,WindDirectionDegrees,WindSpeedMPH,WindSpeedGustMPH,Humidity,HourlyPrecipIn,Conditions,Clouds,dailyrainin,SoftwareType,DateUTC
2013-02-26 00:02:00,49.0,-99.9,30.21,ENE,78,3.0,4.0,-999,-99.99,,,-99.99,,2013-02-26 08:02:00,
2013-02-26 00:11:00,49.0,-99.9,30.21,East,83,3.0,5.0,-999,-99.99,,,-99.99,,2013-02-26 08:11:00,
2013-02-26 00:21:00,49.0,-99.9,30.21,ENE,65,2.0,3.0,-999,-99.99,,,-99.99,,2013-02-26 08:21:00,
2013-02-26 00:32:00,49.0,-99.9,30.21,NE,44,6.0,7.0,-999,-99.99,,,-99.99,,2013-02-26 08:32:00,
2013-02-26 00:42:00,49.0,-99.9,30.21,NNW,339,1.0,4.0,-999,-99.99,,,-99.99,,2013-02-26 08:42:00,
2013-02-26 00:52:00,49.0,-99.9,30.21,NNW,339,1.0,4.0,-999,-99.99,,,-99.99,,2013-02-26 08:52:00,
2013-02-26 01:11:00,49.0,-99.9,30.21,West,268,4.0,6.0,-999,-99.99,,,-99.99,,2013-02-26 09:11:00,
2013-02-26 01:21:00,49.0,-99.9,30.21,WNW,291,1.0,4.0,-999,-99.99,,,-99.99,,2013-02-26 09:21:00,
2013-02-26 01:32:00,49.0,-99.9,30.20,WNW,287,2.0,2.0,-999,-99.99,,,-99.99,,2013-02-26 09:32:00,
2013-02-26 01:43:00,49.0,-99.9,30.20,WNW,300,2.0,3.0,-999,-99.99,,,-99.99,,2013-02-26 09:43:00,
2013-02-26 01:52:00,49.0,-99.9,30.20,WNW,299,-999.0,2.0,-999,-99.99,,,-99.99,,2013-02-26 09:52:00,
2013-02-26 02:01:00,48.0,-99.9,30.20,North,351,2.0,2.0,-999,-99.99,,,-99.99,,2013-02-26 10:01:00,
2013-02-26 02:11:00,48.0,-99.9,30.20,ENE,69,3.0,5.0,-999,-99.99,,,-99.99,,2013-02-26 10:11:00,
2013-02-26 02:21:00,48.0,-99.9,30.20,ENE,72,2.0,4.0,-999,-99.99,,,-99.99,,2013-02-26 10:21:00,
2013-02-26 02:32:00,48.0,-99.9,30.20,North,1,3.0,4.0,-999,-99.99,,,-99.99,,2013-02-26 10:32:00,
2013-02-26 02:42:00,48.0,-99.9,30.20,NNW,337,3.0,4.0,-999,-99.99,,,-99.99,,2013-02-26 10:42:00,
2013-02-26 02:52:00,49.0,-99.9,30.19,NNW,348,5.0,6.0,-999,-99.99,,,-99.99,,2013-02-26 10:52:00,
2013-02-26 03:12:00,49.0,-99.9,30.19,North,6,9.0,11.0,-999,-99.99,,,-99.99,,2013-02-26 11:12:00,
2013-02-26 03:22:00,49.0,-99.9,30.19,North,359,9.0,11.0,-999,-99.99,,,-99.99,,2013-02-26 11:22:00,
2013-02-26 03:32:00,49.0,-99.9,30.18,North,2,9.0,11.0,-999,-99.99,,,-99.99,,2013-02-26 11:32:00,
2013-02-26 03:42:00,49.0,-99.9,30.18,NNW,347,7.0,10.0,-999,-99.99,,,-99.99,,2013-02-26 11:42:00,
2013-02-26 03:53:00,49.0,-99.9,30.18,North,4,8.0,11.0,-999,-99.99,,,-99.99,,2013-02-26 11:53:00,
2013-02-26 04:02:00,49.0,-99.9,30.18,North,3,9.0,12.0,-999,-99.99,,,-99.99,,2013-02-26 12:02:00,
2013-02-26 04:11:00,49.0,-99.9,30.18,North,358,7.0,10.0,-999,-99.99,,,-99.99,,2013-02-26 12:11:00,
2013-02-26 04:22:00,48.0,-99.9,30.18,North,350,2.0,6.0,-999,-99.99,,,-99.99,,2013-02-26 12:22:00,
2013-02-26 04:32:00,48.0,-99.9,30.18,NNW,341,9.0,10.0,-999,-99.99,,,-99.99,,2013-02-26 12:32:00,
2013-02-26 04:42:00,48.0,-99.9,30.18,NNW,345,9.0,12.0,-999,-99.99,,,-99.99,,2013-02-26 12:42:00,
2013-02-26 04:53:00,47.0,-99.9,30.19,North,356,5.0,10.0,-999,-99.99,,,-99.99,,2013-02-26 12:53:00,
2013-02-26 05:02:00,47.0,-99.9,30.19,North,356,5.0,10.0,-999,-99.99,,,-99.99,,2013-02-26 13:02:00,
2013-02-26 05:11:00,47.0,-99.9,30.18,North,353,11.0,13.0,-999,-99.99,,,-99.99,,2013-02-26 13:11:00,
2013-02-26 05:22:00,47.0,-99.9,30.19,NNW,348,10.0,13.0,-999,-99.99,,,-99.99,,2013-02-26 13:22:00,
2013-02-26 05:32:00,47.0,-99.9,30.19,North,353,10.0,12.0,-999,-99.99,,,-99.99,,2013-02-26 13:32:00,
2013-02-26 05:42:00,47.0,-99.9,30.19,North,352,10.0,11.0,-999,-99.99,,,-99.99,,2013-02-26 13:42:00,
2013-02-26 05:52:00,47.0,-99.9,30.19,North,359,10.0,13.0,-999,-99.99,,,-99.99,,2013-02-26 13:52:00,
2013-02-26 06:02:00,48.0,-99.9,30.19,North,6,8.0,10.0,-999,-99.99,,,-99.99,,2013-02-26 14:02:00,
2013-02-26 06:11:00,47.0,-99.9,30.19,North,2,9.0,10.0,-999,-99.99,,,-99.99,,2013-02-26 14:11:00,
2013-02-26 06:22:00,46.0,-99.9,30.20,NE,53,6.0,7.0,-999,-99.99,,,-99.99,,2013-02-26 14:22:00,
2013-02-26 06:32:00,46.0,-99.9,30.20,ENE,57,6.0,8.0,-999,-99.99,,,-99.99,,2013-02-26 14:32:00,
2013-02-26 06:42:00,45.0,-99.9,30.20,NE,45,4.0,6.0,-999,-99.99,,,-99.99,,2013-02-26 14:42:00,
2013-02-26 06:52:00,46.0,-99.9,30.21,North,6,4.0,5.0,-999,-99.99,,,-99.99,,2013-02-26 14:52:00,
2013-02-26 07:02:00,46.0,-99.9,30.20,ENE,58,2.0,4.0,-999,-99.99,,,-99.99,,2013-02-26 15:02:00,
2013-02-26 07:12:00,46.0,-99.9,30.20,North,7,3.0,5.0,-999,-99.99,,,-99.99,,2013-02-26 15:12:00,
2013-02-26 07:22:00,46.0,-99.9,30.20,NNW,332,3.0,4.0,-999,-99.99,,,-99.99,,2013-02-26 15:22:00,
2013-02-26 07:32:00,46.0,-99.9,30.20,NNW,340,4.0,5.0,-999,-99.99,,,-99.99,,2013-02-26 15:32:00,
2013-02-26 07:42:00,46.0,-99.9,30.20,NE,34,2.0,2.0,-999,-99.99,,,-99.99,,2013-02-26 15:42:00,
2013-02-26 07:52:00,47.0,-99.9,30.20,NW,307,1.0,2.0,-999,-99.99,,,-99.99,,2013-02-26 15:52:00,
2013-02-26 08:02:00,46.0,-99.9,30.21,NNW,335,8.0,9.0,-999,-99.99,,,-99.99,,2013-02-26 16:02:00,
2013-02-26 08:11:00,47.0,-99.9,30.21,NNW,339,8.0,9.0,-999,-99.99,,,-99.99,,2013-02-26 16:11:00,
2013-02-26 08:22:00,47.0,-99.9,30.22,NNW,337,5.0,7.0,-999,-99.99,,,-99.99,,2013-02-26 16:22:00,
2013-02-26 08:32:00,47.0,-99.9,30.22,NNW,336,3.0,6.0,-999,-99.99,,,-99.99,,2013-02-26 16:32:00,
2013-02-26 08:42:00,47.0,-99.9,30.22,NNW,327,3.0,4.0,-999,-99.99,,,-99.99,,2013-02-26 16:42:00,
2013-02-26 08:52:00,47.0,-99.9,30.22,WNW,287,2.0,3.0,-999,-99.99,,,-99.99,,2013-02-26 16:52:00,
2013-02-26 09:01:00,48.0,-99.9,30.22,WNW,301,2.0,4.0,-999,-99.99,,,-99.99,,2013-02-26 17:01:00,
2013-02-26 09:11:00,48.0,-99.9,30.22,NW,307,2.0,4.0,-999,-99.99,,,-99.99,,2013-02-26 17:11:00,
2013-02-26 09:22:00,48.0,-99.9,30.22,West,279,1.0,2.0,-999,-99.99,,,-99.99,,2013-02-26 17:22:00,
2013-02-26 09:32:00,48.0,-99.9,30.22,West,279,3.0,4.0,-999,-99.99,,,-99.99,,2013-02-26 17:32:00,
2013-02-26 09:42:00,48.0,-99.9,30.22,West,279,3.0,4.0,-999,-99.99,,,-99.99,,2013-02-26 17:42:00,
2013-02-26 09:52:00,50.0,-99.9,30.22,NNW,332,6.0,8.0,-999,-99.99,,,-99.99,,2013-02-26 17:52:00,
2013-02-26 10:02:00,50.0,-99.9,30.22,NNW,343,6.0,8.0,-999,-99.99,,,-99.99,,2013-02-26 18:02:00,
2013-02-26 10:12:00,50.0,-99.9,30.22,NNW,334,5.0,7.0,-999,-99.99,,,-99.99,,2013-02-26 18:12:00,
2013-02-26 10:21:00,51.0,-99.9,30.22,NNW,328,6.0,7.0,-999,-99.99,,,-99.99,,2013-02-26 18:21:00,
2013-02-26 10:32:00,51.0,-99.9,30.22,NW,324,7.0,9.0,-999,-99.99,,,-99.99,,2013-02-26 18:32:00,
2013-02-26 10:42:00,51.0,-99.9,30.21,NNW,327,7.0,9.0,-999,-99.99,,,-99.99,,2013-02-26 18:42:00,
2013-02-26 10:53:00,51.0,-99.9,30.21,NW,310,6.0,9.0,-999,-99.99,,,-99.99,,2013-02-26 18:53:00,
2013-02-26 11:02:00,52.0,-99.9,30.21,NW,322,7.0,8.0,-999,-99.99,,,-99.99,,2013-02-26 19:02:00,
2013-02-26 11:11:00,52.0,-99.9,30.21,NW,323,7.0,9.0,-999,-99.99,,,-99.99,,2013-02-26 19:11:00,
2013-02-26 11:22:00,53.0,-99.9,30.20,NNW,328,7.0,10.0,-999,-99.99,,,-99.99,,2013-02-26 19:22:00,
2013-02-26 11:32:00,53.0,-99.9,30.20,NW,312,7.0,9.0,-999,-99.99,,,-99.99,,2013-02-26 19:32:00,
2013-02-26 11:42:00,54.0,-99.9,30.20,NW,322,7.0,9.0,-999,-99.99,,,-99.99,,2013-02-26 19:42:00,
2013-02-26 11:52:00,54.0,-99.9,30.20,NW,312,8.0,10.0,-999,-99.99,,,-99.99,,2013-02-26 19:52:00,
2013-02-26 12:01:00,54.0,-99.9,30.21,NW,304,7.0,10.0,-999,-99.99,,,-99.99,,2013-02-26 20:01:00,
2013-02-26 12:11:00,54.0,-99.9,30.20,WNW,298,5.0,9.0,-999,-99.99,,,-99.99,,2013-02-26 20:11:00,
2013-02-26 12:22:00,54.0,-99.9,30.20,WNW,286,5.0,7.0,-999,-99.99,,,-99.99,,2013-02-26 20:22:00,
2013-02-26 12:32:00,55.0,-99.9,30.19,WNW,295,4.0,5.0,-999,-99.99,,,-99.99,,2013-02-26 20:32:00,
2013-02-26 12:42:00,55.0,-99.9,30.19,WNW,290,4.0,4.0,-999,-99.99,,,-99.99,,2013-02-26 20:42:00,
2013-02-26 12:52:00,56.0,-99.9,30.18,WNW,291,4.0,5.0,-999,-99.99,,,-99.99,,2013-02-26 20:52:00,
2013-02-26 13:01:00,56.0,-99.9,30.18,West,268,5.0,6.0,-999,-99.99,,,-99.99,,2013-02-26 21:01:00,
2013-02-26 13:11:00,56.0,-99.9,30.17,WSW,251,5.0,6.0,-999,-99.99,,,-99.99,,2013-02-26 21:11:00,
2013-02-26 13:21:00,56.0,-99.9,30.17,WSW,252,5.0,6.0,-999,-99.99,,,-99.99,,2013-02-26 21:21:00,
2013-02-26 13:31:00,57.0,-99.9,30.16,West,264,4.0,6.0,-999,-99.99,,,-99.99,,2013-02-26 21:31:00,
2013-02-26 13:41:00,58.0,-99.9,30.16,West,262,5.0,6.0,-999,-99.99,,,-99.99,,2013-02-26 21:41:00,
2013-02-26 13:51:00,59.0,-99.9,30.16,WSW,254,4.0,5.0,-999,-99.99,,,-99.99,,2013-02-26 21:51:00,
2013-02-26 14:01:00,60.0,-99.9,30.16,SW,214,2.0,5.0,-999,-99.99,,,-99.99,,2013-02-26 22:01:00,
2013-02-26 14:11:00,60.0,-99.9,30.16,South,182,2.0,3.0,-999,-99.99,,,-99.99,,2013-02-26 22:11:00,
2013-02-26 14:21:00,58.0,-99.9,30.15,SSE,164,5.0,6.0,-999,-99.99,,,-99.99,,2013-02-26 22:21:00,
2013-02-26 14:42:00,58.0,-99.9,30.15,South,188,5.0,7.0,-999,-99.99,,,-99.99,,2013-02-26 22:42:00,
2013-02-26 14:52:00,58.0,-99.9,30.14,SSW,202,6.0,9.0,-999,-99.99,,,-99.99,,2013-02-26 22:52:00,
2013-02-26 15:01:00,58.0,-99.9,30.14,SSW,199,7.0,9.0,-999,-99.99,,,-99.99,,2013-02-26 23:01:00,
2013-02-26 15:11:00,59.0,-99.9,30.14,SSW,201,5.0,10.0,-999,-99.99,,,-99.99,,2013-02-26 23:11:00,
2013-02-26 15:21:00,58.0,-99.9,30.14,SSW,199,8.0,10.0,-999,-99.99,,,-99.99,,2013-02-26 23:21:00,
2013-02-26 15:32:00,58.0,-99.9,30.14,South,190,5.0,7.0,-999,-99.99,,,-99.99,,2013-02-26 23:32:00,
2013-02-26 15:42:00,58.0,-99.9,30.14,SSW,192,4.0,6.0,-999,-99.99,,,-99.99,,2013-02-26 23:42:00,
2013-02-26 15:52:00,58.0,-99.9,30.14,South,173,4.0,7.0,-999,-99.99,,,-99.99,,2013-02-26 23:52:00,
2013-02-26 16:02:00,58.0,-99.9,30.14,SSW,197,5.0,8.0,-999,-99.99,,,-99.99,,2013-02-27 00:02:00,
2013-02-26 16:11:00,59.0,-99.9,30.14,SSW,209,3.0,5.0,-999,-99.99,,,-99.99,,2013-02-27 00:11:00,
2013-02-26 16:22:00,58.0,-99.9,30.14,SSE,162,3.0,5.0,-999,-99.99,,,-99.99,,2013-02-27 00:22:00,
2013-02-26 16:32:00,58.0,-99.9,30.14,South,169,2.0,5.0,-999,-99.99,,,-99.99,,2013-02-27 00:32:00,
2013-02-26 16:42:00,58.0,-99.9,30.14,SE,124,2.0,3.0,-999,-99.99,,,-99.99,,2013-02-27 00:42:00,
2013-02-26 16:52:00,58.0,-99.9,30.14,South,176,3.0,5.0,-999,-99.99,,,-99.99,,2013-02-27 00:52:00,
2013-02-26 17:01:00,56.0,-99.9,30.14,SSE,161,3.0,5.0,-999,-99.99,,,-99.99,,2013-02-27 01:01:00,
2013-02-26 17:11:00,56.0,-99.9,30.14,SSE,148,2.0,4.0,-999,-99.99,,,-99.99,,2013-02-27 01:11:00,
2013-02-26 17:22:00,57.0,-99.9,30.14,SE,128,2.0,4.0,-999,-99.99,,,-99.99,,2013-02-27 01:22:00,
2013-02-26 17:32:00,57.0,-99.9,30.14,SSE,151,3.0,4.0,-999,-99.99,,,-99.99,,2013-02-27 01:32:00,
2013-02-26 17:42:00,57.0,-99.9,30.14,ESE,120,1.0,5.0,-999,-99.99,,,-99.99,,2013-02-27 01:42:00,
2013-02-26 17:52:00,56.0,-99.9,30.15,South,174,3.0,5.0,-999,-99.99,,,-99.99,,2013-02-27 01:52:00,
2013-02-26 18:02:00,57.0,-99.9,30.15,SSE,159,3.0,4.0,-999,-99.99,,,-99.99,,2013-02-27 02:02:00,
2013-02-26 18:16:00,57.0,-99.9,30.15,SE,136,2.0,3.0,-999,-99.99,,,-99.99,,2013-02-27 02:16:00,
2013-02-26 18:24:00,56.0,-99.9,30.15,ESE,115,3.0,4.0,-999,-99.99,,,-99.99,,2013-02-27 02:24:00,
2013-02-26 18:32:00,55.0,-99.9,30.15,SE,130,1.0,3.0,-999,-99.99,,,-99.99,,2013-02-27 02:32:00,
2013-02-26 18:42:00,55.0,-99.9,30.15,East,89,1.0,4.0,-999,-99.99,,,-99.99,,2013-02-27 02:42:00,
2013-02-26 18:52:00,55.0,-99.9,30.16,NE,55,2.0,4.0,-999,-99.99,,,-99.99,,2013-02-27 02:52:00,
2013-02-26 19:02:00,58.0,-99.9,30.15,NNW,339,4.0,7.0,-999,-99.99,,,-99.99,,2013-02-27 03:02:00,
2013-02-26 19:11:00,58.0,-99.9,30.16,NNW,342,4.0,7.0,-999,-99.99,,,-99.99,,2013-02-27 03:11:00,
2013-02-26 19:22:00,56.0,-99.9,30.16,SW,215,1.0,3.0,-999,-99.99,,,-99.99,,2013-02-27 03:22:00,
2013-02-26 19:32:00,56.0,-99.9,30.16,WNW,284,3.0,5.0,-999,-99.99,,,-99.99,,2013-02-27 03:32:00,
2013-02-26 19:42:00,55.0,-99.9,30.16,SSW,194,2.0,2.0,-999,-99.99,,,-99.99,,2013-02-27 03:42:00,
2013-02-26 19:52:00,55.0,-99.9,30.17,West,276,1.0,2.0,-999,-99.99,,,-99.99,,2013-02-27 03:52:00,
2013-02-26 20:02:00,55.0,-99.9,30.17,West,265,1.0,4.0,-999,-99.99,,,-99.99,,2013-02-27 04:02:00,
2013-02-26 20:12:00,55.0,-99.9,30.17,NNW,337,5.0,7.0,-999,-99.99,,,-99.99,,2013-02-27 04:12:00,
2013-02-26 20:22:00,54.0,-99.9,30.17,East,92,2.0,4.0,-999,-99.99,,,-99.99,,2013-02-27 04:22:00,
2013-02-26 20:32:00,53.0,-99.9,30.18,SE,126,2.0,3.0,-999,-99.99,,,-99.99,,2013-02-27 04:32:00,
2013-02-26 20:42:00,53.0,-99.9,30.18,East,98,2.0,3.0,-999,-99.99,,,-99.99,,2013-02-27 04:42:00,
2013-02-26 20:52:00,53.0,-99.9,30.18,ESE,118,2.0,3.0,-999,-99.99,,,-99.99,,2013-02-27 04:52:00,
2013-02-26 21:02:00,53.0,-99.9,30.18,ESE,111,1.0,3.0,-999,-99.99,,,-99.99,,2013-02-27 05:02:00,
2013-02-26 21:12:00,53.0,-99.9,30.18,South,191,2.0,3.0,-999,-99.99,,,-99.99,,2013-02-27 05:12:00,
2013-02-26 21:22:00,53.0,-99.9,30.19,WSW,251,2.0,4.0,-999,-99.99,,,-99.99,,2013-02-27 05:22:00,
2013-02-26 21:32:00,53.0,-99.9,30.19,West,260,2.0,3.0,-999,-99.99,,,-99.99,,2013-02-27 05:32:00,
2013-02-26 21:42:00,52.0,-99.9,30.19,West,267,2.0,3.0,-999,-99.99,,,-99.99,,2013-02-27 05:42:00,
2013-02-26 21:52:00,52.0,-99.9,30.19,SW,230,-999.0,2.0,-999,-99.99,,,-99.99,,2013-02-27 05:52:00,
2013-02-26 22:02:00,52.0,-99.9,30.19,NNW,327,2.0,2.0,-999,-99.99,,,-99.99,,2013-02-27 06:02:00,
2013-02-26 22:11:00,52.0,-99.9,30.19,North,359,0.0,2.0,-999,-99.99,,,-99.99,,2013-02-27 06:11:00,
2013-02-26 22:22:00,51.0,-99.9,30.20,NE,49,1.0,2.0,-999,-99.99,,,-99.99,,2013-02-27 06:22:00,
2013-02-26 22:33:00,51.0,-99.9,30.20,ESE,107,1.0,2.0,-999,-99.99,,,-99.99,,2013-02-27 06:33:00,
2013-02-26 22:42:00,51.0,-99.9,30.20,SSE,153,1.0,2.0,-999,-99.99,,,-99.99,,2013-02-27 06:42:00,
2013-02-26 22:52:00,51.0,-99.9,30.20,WSW,237,1.0,1.0,-999,-99.99,,,-99.99,,2013-02-27 06:52:00,
2013-02-26 23:01:00,51.0,-99.9,30.20,South,178,1.0,2.0,-999,-99.99,,,-99.99,,2013-02-27 07:01:00,
2013-02-26 23:12:00,51.0,-99.9,30.20,South,171,2.0,3.0,-999,-99.99,,,-99.99,,2013-02-27 07:12:00,
2013-02-26 23:22:00,51.0,-99.9,30.20,SSE,159,2.0,4.0,-999,-99.99,,,-99.99,,2013-02-27 07:22:00,
2013-02-26 23:32:00,51.0,-99.9,30.21,SSE,154,0.0,2.0,-999,-99.99,,,-99.99,,2013-02-27 07:32:00,
2013-02-26 23:42:00,51.0,-99.9,30.21,SSE,168,0.0,1.0,-999,-99.99,,,-99.99,,2013-02-27 07:42:00,
2013-02-26 23:52:00,51.0,-99.9,30.21,South,177,2.0,2.0,-999,-99.99,,,-99.99,,2013-02-27 07:52:00,